TimeAKST,TemperatureF,Dew PointF,Humidity,Sea Level PressureIn,VisibilityMPH,Wind Direction,Wind SpeedMPH,Gust SpeedMPH,PrecipitationIn,Events,Conditions,WindDirDegrees,DateUTC
12:16 AM,-16.6,-22.0,76,30.26,10.0,Calm,Calm,-,N/A,,Clear,0,2012-11-24 09:16:00
12:36 AM,-16.6,-25.6,64,30.26,10.0,Calm,Calm,-,N/A,,Clear,0,2012-11-24 09:36:00
12:56 AM,-16.6,-22.0,76,30.27,10.0,Calm,Calm,-,N/A,,Clear,0,2012-11-24 09:56:00
1:16 AM,-16.6,-25.6,64,30.27,10.0,Calm,Calm,-,N/A,,Clear,0,2012-11-24 10:16:00
1:36 AM,-16.6,-27.4,58,30.27,10.0,Calm,Calm,-,N/A,,Clear,0,2012-11-24 10:36:00
1:56 AM,-16.6,-20.2,84,30.27,10.0,Calm,Calm,-,N/A,,Clear,0,2012-11-24 10:56:00
2:16 AM,-16.6,-29.2,53,30.27,10.0,Calm,Calm,-,N/A,,Clear,0,2012-11-24 11:16:00
2:36 AM,-16.6,-25.6,64,30.27,10.0,Calm,Calm,-,N/A,,Clear,0,2012-11-24 11:36:00
2:56 AM,-16.6,-22.0,76,30.27,10.0,Calm,Calm,-,N/A,,Clear,0,2012-11-24 11:56:00
3:16 AM,-16.6,-9999,N/A,30.27,10.0,Calm,Calm,-,N/A,,Clear,0,2012-11-24 12:16:00
3:36 AM,-18.4,-23.8,76,30.28,10.0,Calm,Calm,-,N/A,,Clear,0,2012-11-24 12:36:00
3:56 AM,-16.6,-23.8,70,30.27,10.0,Calm,Calm,-,N/A,,Clear,0,2012-11-24 12:56:00
4:16 AM,-18.4,-9999,N/A,30.27,10.0,Calm,Calm,-,N/A,,Clear,0,2012-11-24 13:16:00
4:36 AM,-16.6,-18.4,92,30.28,10.0,Calm,Calm,-,N/A,,Clear,0,2012-11-24 13:36:00
4:56 AM,-16.6,-9999,N/A,30.28,10.0,Calm,Calm,-,N/A,,Clear,0,2012-11-24 13:56:00
5:16 AM,-16.6,-9999,N/A,30.28,10.0,Calm,Calm,-,N/A,,Clear,0,2012-11-24 14:16:00
5:36 AM,-16.6,-23.8,70,30.28,10.0,South,3.5,-,N/A,,Clear,170,2012-11-24 14:36:00
5:56 AM,-16.6,-9999,N/A,30.28,10.0,SSE,3.5,-,N/A,,Clear,150,2012-11-24 14:56:00
6:16 AM,-16.6,-9999,N/A,30.27,10.0,Calm,Calm,-,N/A,,Clear,0,2012-11-24 15:16:00
6:36 AM,-16.6,-27.4,58,30.27,10.0,Calm,Calm,-,N/A,,Clear,0,2012-11-24 15:36:00
6:56 AM,-16.6,-16.6,100,30.27,10.0,Calm,Calm,-,N/A,,Clear,0,2012-11-24 15:56:00
7:16 AM,-16.6,-25.6,64,30.27,10.0,Calm,Calm,-,N/A,,Clear,0,2012-11-24 16:16:00
7:36 AM,-16.6,-23.8,70,30.27,10.0,SSE,3.5,-,N/A,,Clear,150,2012-11-24 16:36:00
7:56 AM,-16.6,-20.2,84,30.28,10.0,Calm,Calm,-,N/A,,Clear,0,2012-11-24 16:56:00
8:16 AM,-16.6,-23.8,70,30.28,10.0,Calm,Calm,-,N/A,,Clear,0,2012-11-24 17:16:00
8:36 AM,-16.6,-20.2,84,30.28,10.0,Calm,Calm,-,N/A,,Clear,0,2012-11-24 17:36:00
8:56 AM,-16.6,-25.6,64,30.28,10.0,Calm,Calm,-,N/A,,Clear,0,2012-11-24 17:56:00
9:16 AM,-16.6,-25.6,64,30.28,10.0,SSE,3.5,-,N/A,,Clear,150,2012-11-24 18:16:00
9:36 AM,-16.6,-22.0,76,30.29,10.0,Calm,Calm,-,N/A,,Clear,0,2012-11-24 18:36:00
9:56 AM,-16.6,-23.8,70,30.29,10.0,Calm,Calm,-,N/A,,Clear,0,2012-11-24 18:56:00
10:16 AM,-16.6,-23.8,70,30.30,10.0,Calm,Calm,-,N/A,,Clear,0,2012-11-24 19:16:00
10:36 AM,-16.6,-22.0,76,30.30,10.0,Calm,Calm,-,N/A,,Clear,0,2012-11-24 19:36:00
10:56 AM,-16.6,-25.6,64,30.30,10.0,Calm,Calm,-,N/A,,Clear,0,2012-11-24 19:56:00
11:16 AM,-16.6,-25.6,64,30.30,10.0,Calm,Calm,-,N/A,,Clear,0,2012-11-24 20:16:00
11:36 AM,-16.6,-23.8,70,30.30,10.0,Calm,Calm,-,N/A,,Clear,0,2012-11-24 20:36:00
11:56 AM,-16.6,-25.6,64,30.30,10.0,Calm,Calm,-,N/A,,Clear,0,2012-11-24 20:56:00
12:16 PM,-16.6,-25.6,64,30.30,10.0,Calm,Calm,-,N/A,,Clear,0,2012-11-24 21:16:00
12:36 PM,-16.6,-23.8,70,30.29,10.0,Calm,Calm,-,N/A,,Clear,0,2012-11-24 21:36:00
12:56 PM,-16.6,-23.8,70,30.30,10.0,Calm,Calm,-,N/A,,Clear,0,2012-11-24 21:56:00
1:16 PM,-14.8,-20.2,77,30.30,10.0,Calm,Calm,-,N/A,,Clear,0,2012-11-24 22:16:00
1:36 PM,-14.8,-20.2,77,30.30,10.0,South,3.5,-,N/A,,Clear,170,2012-11-24 22:36:00
1:56 PM,-14.8,-23.8,64,30.30,10.0,SSE,3.5,-,N/A,,Clear,150,2012-11-24 22:56:00
2:16 PM,-13.0,-16.6,84,30.30,10.0,Calm,Calm,-,N/A,,Clear,0,2012-11-24 23:16:00
2:36 PM,-13.0,-23.8,59,30.29,10.0,ESE,3.5,-,N/A,,Clear,120,2012-11-24 23:36:00
2:56 PM,-9999,-9999,N/A,30.28,10.0,Calm,Calm,-,N/A,,Clear,0,2012-11-24 23:56:00
3:16 PM,-13.0,-27.4,49,30.29,10.0,Calm,Calm,-,N/A,,Clear,0,2012-11-25 00:16:00
3:36 PM,-14.8,-18.4,84,30.29,10.0,Calm,Calm,-,N/A,,Clear,0,2012-11-25 00:36:00
3:56 PM,-14.8,-27.4,53,30.29,10.0,Calm,Calm,-,N/A,,Clear,0,2012-11-25 00:56:00
4:16 PM,-14.8,-25.6,58,30.30,10.0,Calm,Calm,-,N/A,,Clear,0,2012-11-25 01:16:00
4:36 PM,-14.8,-16.6,92,30.30,10.0,Calm,Calm,-,N/A,,Clear,0,2012-11-25 01:36:00
4:56 PM,-14.8,-29.2,48,30.30,10.0,Calm,Calm,-,N/A,,Clear,0,2012-11-25 01:56:00
5:16 PM,-14.8,-18.4,84,30.29,10.0,Calm,Calm,-,N/A,,Clear,0,2012-11-25 02:16:00
5:36 PM,-14.8,-27.4,53,30.30,10.0,Calm,Calm,-,N/A,,Clear,0,2012-11-25 02:36:00
5:56 PM,-14.8,-25.6,58,30.30,10.0,Calm,Calm,-,N/A,,Clear,0,2012-11-25 02:56:00
6:16 PM,-14.8,-16.6,92,30.31,10.0,Calm,Calm,-,N/A,,Clear,0,2012-11-25 03:16:00
6:36 PM,-14.8,-9999,N/A,30.31,10.0,SE,3.5,-,N/A,,Clear,140,2012-11-25 03:36:00
6:56 PM,-14.8,-16.6,92,30.31,10.0,Calm,Calm,-,N/A,,Clear,0,2012-11-25 03:56:00
7:16 PM,-14.8,-9999,N/A,30.32,10.0,SSE,3.5,-,N/A,,Clear,160,2012-11-25 04:16:00
7:36 PM,-16.6,-29.2,53,30.32,10.0,Calm,Calm,-,N/A,,Clear,0,2012-11-25 04:36:00
7:56 PM,-14.8,-18.4,84,30.32,10.0,ESE,3.5,-,N/A,,Clear,120,2012-11-25 04:56:00
8:16 PM,-14.8,-9999,N/A,30.33,10.0,Calm,Calm,-,N/A,,Clear,0,2012-11-25 05:16:00
8:36 PM,-14.8,-9999,N/A,30.33,10.0,Calm,Calm,-,N/A,,Clear,0,2012-11-25 05:36:00
8:56 PM,-14.8,-20.2,77,30.33,10.0,Calm,Calm,-,N/A,,Clear,0,2012-11-25 05:56:00
9:16 PM,-16.6,-20.2,84,30.33,10.0,Calm,Calm,-,N/A,,Clear,0,2012-11-25 06:16:00
9:36 PM,-16.6,-20.2,84,30.33,10.0,Calm,Calm,-,N/A,,Clear,0,2012-11-25 06:36:00
9:56 PM,-16.6,-22.0,76,30.32,10.0,Calm,Calm,-,N/A,,Clear,0,2012-11-25 06:56:00
10:16 PM,-16.6,-23.8,70,30.33,10.0,Calm,Calm,-,N/A,,Clear,0,2012-11-25 07:16:00
10:36 PM,-16.6,-18.4,92,30.33,10.0,Calm,Calm,-,N/A,,Clear,0,2012-11-25 07:36:00
10:56 PM,-14.8,-22.0,70,30.34,10.0,Calm,Calm,-,N/A,,Clear,0,2012-11-25 07:56:00
11:16 PM,-16.6,-22.0,76,30.35,10.0,Calm,Calm,-,N/A,,Clear,0,2012-11-25 08:16:00
11:36 PM,-16.6,-23.8,70,30.35,10.0,Calm,Calm,-,N/A,,Clear,0,2012-11-25 08:36:00
11:56 PM,-16.6,-25.6,64,30.36,10.0,Calm,Calm,-,N/A,,Clear,0,2012-11-25 08:56:00